Simultaneous Nadir Overpasses (SNOs) Predictions

Prediction of SNOs between FY3D and METOP-C Satellite Orbit:

Table of predicted SNOs for the next 14.0 days since TLE Epoch: 11/4/2022
Index Date (FY3D) Time (FY3D) Lat,Lon (FY3D) SZA (FY3D ) Date (METOP-C) Time (METOP-C) Lat,Lon (METOP-C) SZA (METOP-C ) Distance(km) Time Diff (sec)
1 11/09/2022 16:05:32 74.83, -67.32 91.74 11/09/2022 16:06:40 74.76, -65.06 91.66 66.27 68
2 11/09/2022 16:56:15 -74.75, 100.23 88.34 11/09/2022 16:57:24 -74.70, 102.11 88.40 55.24 69
3 11/09/2022 17:46:56 74.46, -91.67 91.37 11/09/2022 17:48:09 74.40, -91.36 91.32 11.13 73
4 11/09/2022 18:37:39 -74.38, 75.87 88.70 11/09/2022 18:38:52 -74.39, 75.94 88.69 2.97 73
5 11/09/2022 19:28:26 74.37,-116.82 91.31 11/09/2022 19:29:31 74.38,-116.75 91.32 2.32 65
6 11/09/2022 20:19:11 -74.39, 50.46 88.67 11/09/2022 20:20:14 -74.37, 50.55 88.69 3.22 63
7 11/09/2022 21:09:58 74.38,-142.23 91.34 11/09/2022 21:10:53 74.36,-142.14 91.32 3.38 55
8 11/09/2022 22:00:42 -74.35, 25.17 88.69 11/09/2022 22:01:36 -74.36, 25.16 88.69 0.79 54
9 11/09/2022 22:51:29 74.34,-167.51 91.32 11/09/2022 22:52:15 74.34,-167.53 91.32 0.60 46
10 11/09/2022 23:42:14 -74.36, -0.23 88.66 11/09/2022 23:42:58 -74.34, -0.22 88.68 2.55 44
11 11/10/2022 00:33:01 74.35, 167.08 91.35 11/10/2022 00:33:37 74.33, 167.08 91.32 3.26 36
12 11/10/2022 01:23:45 -74.32, -25.52 88.68 11/10/2022 01:24:20 -74.32, -25.61 88.68 2.95 35
13 11/10/2022 02:14:32 74.32, 141.80 91.33 11/10/2022 02:14:59 74.31, 141.70 91.32 3.41 27
14 11/10/2022 03:05:17 -74.33, -50.92 88.65 11/10/2022 03:05:41 -74.35, -50.88 88.63 2.27 24
15 11/10/2022 03:56:04 74.33, 116.39 91.36 11/10/2022 03:56:20 74.34, 116.43 91.37 1.57 16
16 11/10/2022 04:46:49 -74.34, -76.33 88.62 11/10/2022 04:47:03 -74.33, -76.26 88.63 2.56 14
17 11/10/2022 05:37:36 74.34, 90.99 91.39 11/10/2022 05:37:42 74.32, 91.04 91.37 2.85 6
18 11/10/2022 06:28:20 -74.30,-101.61 88.64 11/10/2022 06:28:25 -74.31,-101.65 88.63 1.30 5
19 11/10/2022 07:19:07 74.30, 65.70 91.37 11/10/2022 07:19:04 74.30, 65.66 91.37 1.44 3
20 11/10/2022 08:09:52 -74.31,-127.02 88.61 11/10/2022 08:09:47 -74.29,-127.04 88.63 2.72 5
21 11/10/2022 09:00:39 74.31, 40.29 91.40 11/10/2022 09:00:26 74.28, 40.27 91.37 3.46 13
22 11/10/2022 09:51:23 -74.28,-152.31 88.63 11/10/2022 09:51:09 -74.27,-152.43 88.63 3.79 14
23 11/10/2022 10:42:11 74.32, 14.89 91.43 11/10/2022 10:41:47 74.31, 15.00 91.42 3.75 24
24 11/10/2022 11:32:55 -74.29,-177.71 88.60 11/10/2022 11:32:30 -74.30,-177.69 88.58 1.73 25
25 11/10/2022 12:23:42 74.28, -10.40 91.41 11/10/2022 12:23:09 74.29, -10.38 91.42 1.01 33
26 11/10/2022 13:14:27 -74.30, 156.88 88.57 11/10/2022 13:13:52 -74.28, 156.92 88.58 2.06 35
27 11/10/2022 14:05:14 74.29, -35.80 91.44 11/10/2022 14:04:31 74.27, -35.77 91.42 2.52 43
28 11/10/2022 14:55:58 -74.26, 131.59 88.58 11/10/2022 14:55:14 -74.26, 131.53 88.58 2.02 44
29 11/10/2022 15:46:45 74.25, -61.09 91.43 11/10/2022 15:45:53 74.25, -61.16 91.42 2.27 52
30 11/10/2022 16:37:30 -74.27, 106.19 88.55 11/10/2022 16:36:36 -74.24, 106.14 88.58 3.13 54
31 11/10/2022 17:28:17 74.26, -86.50 91.46 11/10/2022 17:27:14 74.28, -86.42 91.47 2.90 63
32 11/10/2022 18:19:02 -74.28, 80.78 88.52 11/10/2022 18:17:57 -74.27, 80.88 88.53 3.07 65
33 11/10/2022 19:09:49 74.27,-111.90 91.49 11/10/2022 19:08:36 74.26,-111.81 91.47 3.03 73
34 11/10/2022 20:00:33 -74.24, 55.49 88.54 11/10/2022 19:59:19 -74.25, 55.49 88.53 1.47 74
35 11/10/2022 20:51:14 73.94,-136.44 91.17 11/10/2022 20:50:04 73.95,-137.94 91.18 45.97 70
36 11/10/2022 21:41:58 -73.91, 30.95 88.86 11/10/2022 21:40:48 -73.89, 29.25 88.87 52.51 70



Historial Predications of SNOs between FY3D and METOP-C
